Flag for Canada Weather past 2 weeks in Sault Ste. Marie, Ontario, Canada

Now
54 °F

Overcast.


Feels Like: 53 °F
Forecast: N/A
Wind: 3 mph from Southwest

Location: Sault Ste Marie

Current Time: Oct 24, 2014 at 4:38:30 PM

Latest Report: Oct 24, 2014 at 4:00 PM


Visibility: 15 mi

Pressure: 29.92 "Hg

Humidity: 82%

Dew point: 48 °F

Location of Sault Ste. MarieLocation

Historic Weather in Sault Ste. Marie — Graph

°F

Sault Ste. Marie temperature yesterday

Maximum temperature yesterday: 54 °F (at 3:00 PM)
Minimum temperature yesterday: 27 °F (at 1:00 AM)
Average temperature yesterday: 38 °F

Past Weeks' High & Low Weather Summary

 TemperatureHumidityPressure
High59 °F (Oct 12, 1:00 PM)100% (Oct 11, 9:00 PM)30.45 "Hg (Oct 11, 9:00 PM)
Low25 °F (Oct 22, 7:00 AM)44% (Oct 12, 5:00 PM)29.42 "Hg (Oct 17, 1:52 PM)
Average45 °F84%29.98 "Hg
* Reported Oct 9 3:01 PM — Oct 24 3:00 PM, Sault Ste. Marie, Weather by CustomWeather, © 2014

Note: Actual official high and low records may vary slightly from our data, if they occured in-between our weather recording intervals... More about our weather records

Advertising

Sault Ste. Marie weather history for previous 24 hours

 ConditionsComfort  
Time TempWeatherWind HumidityBarometerVisibility
3:00 PM
Oct 24
52 °FOvercast.7 mph88%29.93 "Hg15 mi
2:00 PM50 °FOvercast.2 mph94%29.96 "Hg8 mi
1:00 PM50 °FFog.2 mph94%29.97 "Hg3 mi
12:48 PM48 °FFog.5 mph100%29.98 "Hg3 mi
12:00 PM46 °FDrizzle. Fog.2 mph100%30.00 "Hg2 mi
11:50 AM46 °FDrizzle. Fog.No wind100%30.00 "Hg2 mi
11:00 AM46 °FDrizzle. Fog.2 mph93%30.02 "Hg2 mi
10:00 AM45 °FDrizzle. Fog.5 mph100%30.02 "Hg1 mi
9:49 AM45 °FDrizzle. Fog.5 mph100%30.02 "Hg1 mi
9:00 AM45 °FFog.5 mph93%30.03 "Hg1 mi
8:49 AM45 °FFog.3 mph93%30.03 "Hg1 mi
8:00 AM43 °FFog.5 mph100%30.02 "Hg3 mi
7:00 AM43 °FLow clouds.5 mph100%30.02 "Hg8 mi
6:48 AM43 °FLow clouds.6 mph100%30.02 "Hg8 mi
6:00 AM43 °FLight rain. Low clouds.6 mph100%30.02 "Hg10 mi
5:00 AM43 °FLight rain. Mostly cloudy.5 mph100%30.03 "Hg10 mi
4:00 AM43 °FMostly cloudy.6 mph93%30.03 "Hg12 mi
3:50 AM43 °FMostly cloudy.5 mph93%30.04 "Hg10 mi
3:04 AM43 °FLight rain. Overcast.6 mph93%30.04 "Hg12 mi
2:00 AM43 °FMostly cloudy.7 mph93%30.05 "Hg15 mi
1:00 AM41 °FMostly cloudy.3 mph93%30.07 "Hg15 mi
12:00 AM39 °FPassing clouds.3 mph93%30.08 "Hg15 mi
11:00 PM
Oct 23
36 °FPassing clouds.5 mph100%30.10 "Hg15 mi
10:00 PM37 °FPassing clouds.3 mph93%30.10 "Hg15 mi
9:00 PM43 °FPassing clouds.5 mph81%30.11 "Hg15 mi
8:00 PM43 °FPassing clouds.3 mph87%30.11 "Hg15 mi
7:00 PM48 °FScattered clouds.6 mph71%30.11 "Hg12 mi
6:00 PM50 °FBroken clouds.5 mph62%30.11 "Hg15 mi
5:00 PM54 °FPartly sunny.6 mph51%30.11 "Hg15 mi
4:00 PM54 °FPartly sunny.3 mph54%30.12 "Hg15 mi
Weather by CustomWeather, © 2014

See weather overviewHow to use our weather pages